Escanaba, MI

9:16 AM EDT on April 30, 2017 (GMT -0400)
Delta County

Weather History for KESC - December, 2010

Change the Weather History Date:

Monday, December 27, 2010

  Actual Average Record
Temperature  
Mean Temperature 22 °F -  
Max Temperature 26 °F 26 °F 42 °F (2008)
Min Temperature 19 °F 12 °F -13 °F (1996)
Degree Days  
Heating Degree Days 42    
Moisture  
Dew Point 13 °F    
Average Humidity 68    
Maximum Humidity 80    
Minimum Humidity 55    
Precipitation  
Precipitation 0.00 in - - ()
Sea Level Pressure  
Sea Level Pressure 30.16 in    
Wind  
Wind Speed 7 mph (WSW)    
Max Wind Speed 13 mph    
Max Gust Speed -    
Visibility 10 miles    
Events      
Averages and records for this station are not official NWS values.
T = Trace of Precipitation, MM = Missing Value Source: NWS Daily Summary

Daily Weather History Graph

Daily Weather History Graph

Search for Another Location

Airport or City:

Trip Planner

Search our weather history database for the weather conditions in past years. The results will help you decide how hot, cold, wet, or windy it might be!

Date:

Astronomy

Dec. 27, 2010 Rise Set
Actual Time 8:28 AM EST 5:10 PM EST
Civil Twilight 7:54 AM EST 5:44 PM EST
Nautical Twilight 7:16 AM EST 6:22 PM EST
Astronomical Twilight 6:40 AM EST 6:58 PM EST
Moon No Moon Rise 11:54 AM EST (12/27)
Length of Visible Light 9h 50m
Length of Day
8h 41m
Waning Gibbous, 55% of the Moon is Illuminated
Dec 27
Waning Gibbous
Dec 27
Last Quarter
Jan 4
New
Jan 12
First Quarter
Jan 19
Full

Hourly Weather History & Observations

Time (EST) Temp. Windchill Dew Point Humidity Pressure Visibility Wind Dir Wind Speed Gust Speed Precip Events Conditions
12:15 AM 24.8 °F 17.9 °F 17.6 °F 74% 30.25 in 10.0 mi NNW 5.8 mph - N/A   Overcast
12:35 AM 24.8 °F 19.1 °F 15.8 °F 69% 30.25 in 10.0 mi NW 4.6 mph - N/A   Overcast
12:55 AM 24.8 °F 19.1 °F 15.8 °F 69% 30.25 in 10.0 mi NW 4.6 mph - N/A   Overcast
1:15 AM 24.8 °F 16.9 °F 15.8 °F 69% 30.24 in 10.0 mi NW 6.9 mph - N/A   Overcast
1:35 AM 24.8 °F - 17.6 °F 74% 30.24 in 10.0 mi Calm Calm - N/A   Overcast
1:55 AM 24.8 °F 17.9 °F 15.8 °F 69% 30.24 in 10.0 mi NNW 5.8 mph - N/A   Overcast
2:15 AM 24.8 °F 19.1 °F 15.8 °F 69% 30.24 in 10.0 mi NW 4.6 mph - N/A   Overcast
2:35 AM 24.8 °F 19.1 °F 15.8 °F 69% 30.24 in 10.0 mi NW 4.6 mph - N/A   Overcast
2:55 AM 24.8 °F 16.9 °F 15.8 °F 69% 30.23 in 10.0 mi WNW 6.9 mph - N/A   Overcast
3:15 AM 24.8 °F 17.9 °F 15.8 °F 69% 30.24 in 10.0 mi WNW 5.8 mph - N/A   Overcast
3:35 AM 24.8 °F 17.9 °F 15.8 °F 69% 30.24 in 10.0 mi West 5.8 mph - N/A   Overcast
3:55 AM 24.8 °F 15.3 °F 15.8 °F 69% 30.23 in 10.0 mi West 9.2 mph - N/A   Overcast
4:15 AM 23.0 °F 14.7 °F 15.8 °F 74% 30.23 in 10.0 mi West 6.9 mph - N/A   Overcast
4:35 AM 23.0 °F 13.9 °F 15.8 °F 74% 30.23 in 10.0 mi WNW 8.1 mph - N/A   Overcast
4:55 AM 23.0 °F 12.4 °F 15.8 °F 74% 30.23 in 10.0 mi West 10.4 mph - N/A   Overcast
5:15 AM 21.2 °F 10.9 °F 15.8 °F 80% 30.22 in 10.0 mi West 9.2 mph - N/A   Overcast
5:35 AM 21.2 °F 11.7 °F 14.0 °F 74% 30.22 in 10.0 mi West 8.1 mph - N/A   Overcast
5:55 AM 21.2 °F 10.9 °F 14.0 °F 74% 30.22 in 10.0 mi West 9.2 mph - N/A   Overcast
6:15 AM 21.2 °F 11.7 °F 14.0 °F 74% 30.22 in 10.0 mi West 8.1 mph - N/A   Mostly Cloudy
6:35 AM 21.2 °F 12.6 °F 14.0 °F 74% 30.22 in 10.0 mi West 6.9 mph - N/A   Partly Cloudy
6:55 AM 19.4 °F 10.4 °F 12.2 °F 74% 30.22 in 10.0 mi West 6.9 mph - N/A   Clear
7:15 AM 19.4 °F 10.4 °F 12.2 °F 74% 30.22 in 10.0 mi West 6.9 mph - N/A   Clear
7:35 AM 19.4 °F 12.8 °F 12.2 °F 74% 30.21 in 10.0 mi West 4.6 mph - N/A   Clear
7:55 AM 19.4 °F 12.8 °F 12.2 °F 74% 30.21 in 10.0 mi WSW 4.6 mph - N/A   Clear
8:15 AM 19.4 °F 11.5 °F 12.2 °F 74% 30.20 in 10.0 mi WSW 5.8 mph - N/A   Clear
8:35 AM 19.4 °F 10.4 °F 12.2 °F 74% 30.20 in 10.0 mi WSW 6.9 mph - N/A   Clear
8:55 AM 19.4 °F 10.4 °F 12.2 °F 74% 30.19 in 10.0 mi WSW 6.9 mph - N/A   Clear
9:15 AM 19.4 °F 11.5 °F 12.2 °F 74% 30.19 in 10.0 mi West 5.8 mph - N/A   Mostly Cloudy
9:35 AM 19.4 °F 9.5 °F 12.2 °F 74% 30.19 in 10.0 mi West 8.1 mph - N/A   Overcast
9:55 AM 19.4 °F 7.9 °F 12.2 °F 74% 30.19 in 10.0 mi West 10.4 mph - N/A   Overcast
10:15 AM 19.4 °F 6.6 °F 12.2 °F 74% 30.18 in 10.0 mi West 12.7 mph - N/A   Overcast
10:35 AM 19.4 °F 7.9 °F 12.2 °F 74% 30.18 in 10.0 mi West 10.4 mph - N/A   Overcast
10:55 AM 19.4 °F 9.5 °F 12.2 °F 74% 30.17 in 10.0 mi WSW 8.1 mph - N/A   Overcast
11:35 AM 19.4 °F 11.5 °F 12.2 °F 74% 30.16 in 10.0 mi WSW 5.8 mph - N/A   Overcast
11:55 AM 19.4 °F 9.5 °F 12.2 °F 74% 30.15 in 10.0 mi WSW 8.1 mph - N/A   Scattered Clouds
12:15 PM 21.2 °F 12.6 °F 12.2 °F 68% 30.14 in 10.0 mi SW 6.9 mph - N/A   Clear
12:35 PM 21.2 °F 10.9 °F 12.2 °F 68% 30.13 in 10.0 mi WSW 9.2 mph - N/A   Clear
12:55 PM 21.2 °F 11.7 °F 12.2 °F 68% 30.12 in 10.0 mi WSW 8.1 mph - N/A   Clear
1:15 PM 23.0 °F 13.1 °F 12.2 °F 63% 30.11 in 10.0 mi WSW 9.2 mph - N/A   Clear
1:35 PM 24.8 °F 16.9 °F 12.2 °F 59% 30.09 in 10.0 mi West 6.9 mph - N/A   Clear
1:55 PM 24.8 °F 16.9 °F 12.2 °F 59% 30.08 in 10.0 mi WSW 6.9 mph - N/A   Clear
2:15 PM 24.8 °F 15.3 °F 12.2 °F 59% 30.07 in 10.0 mi WSW 9.2 mph - N/A   Clear
2:55 PM 26.6 °F 19.1 °F 12.2 °F 55% 30.06 in 10.0 mi WSW 6.9 mph - N/A   Clear
3:15 PM 26.6 °F 17.5 °F 12.2 °F 55% 30.06 in 10.0 mi WSW 9.2 mph - N/A   Clear
3:35 PM 26.6 °F 19.1 °F 12.2 °F 55% 30.05 in 10.0 mi SW 6.9 mph - N/A   Clear
3:55 PM 26.6 °F 17.5 °F 12.2 °F 55% 30.05 in 10.0 mi SW 9.2 mph - N/A   Clear
4:15 PM 26.6 °F 17.5 °F 12.2 °F 55% 30.05 in 10.0 mi WSW 9.2 mph - N/A   Clear
4:35 PM 26.6 °F 17.5 °F 12.2 °F 55% 30.05 in 10.0 mi SW 9.2 mph - N/A   Clear
4:55 PM 26.6 °F 18.2 °F 12.2 °F 55% 30.05 in 10.0 mi WSW 8.1 mph - N/A   Clear
5:15 PM 24.8 °F 19.1 °F 12.2 °F 59% 30.05 in 10.0 mi SW 4.6 mph - N/A   Clear
5:35 PM 24.8 °F 17.9 °F 12.2 °F 59% 30.04 in 10.0 mi SSW 5.8 mph - N/A   Clear
5:55 PM 23.0 °F 13.1 °F 12.2 °F 63% 30.04 in 10.0 mi SSW 9.2 mph - N/A   Clear
6:15 PM 23.0 °F 14.7 °F 12.2 °F 63% 30.03 in 10.0 mi SSW 6.9 mph - N/A   Clear
6:35 PM 23.0 °F 13.1 °F 12.2 °F 63% 30.02 in 10.0 mi SSW 9.2 mph - N/A   Clear
6:55 PM 21.2 °F 9.5 °F 12.2 °F 68% 30.02 in 10.0 mi SSW 11.5 mph - N/A   Clear
7:15 PM 21.2 °F 10.1 °F 12.2 °F 68% 30.01 in 10.0 mi SSW 10.4 mph - N/A   Clear
7:35 PM 19.4 °F 7.9 °F 12.2 °F 74% 30.00 in 10.0 mi SW 10.4 mph - N/A   Clear
7:55 PM 19.4 °F 7.9 °F 10.4 °F 68% 30.00 in 10.0 mi SSW 10.4 mph - N/A   Clear
8:15 PM 19.4 °F 7.2 °F 10.4 °F 68% 29.99 in 10.0 mi SW 11.5 mph - N/A   Clear
8:35 PM 17.6 °F 5.0 °F 10.4 °F 73% 29.99 in 10.0 mi SSW 11.5 mph - N/A   Clear
8:55 PM 17.6 °F 5.7 °F 10.4 °F 73% 29.98 in 10.0 mi SW 10.4 mph - N/A   Clear
9:15 PM 17.6 °F 6.4 °F 10.4 °F 73% 29.98 in 10.0 mi SW 9.2 mph - N/A   Clear
9:35 PM 17.6 °F 7.3 °F 10.4 °F 73% 29.97 in 10.0 mi SW 8.1 mph - N/A   Clear
9:55 PM 17.6 °F 7.3 °F 8.6 °F 68% 29.98 in 10.0 mi SW 8.1 mph - N/A   Clear
10:15 PM 15.8 °F 4.2 °F 10.4 °F 79% 29.96 in 10.0 mi SW 9.2 mph - N/A   Clear
10:35 PM 15.8 °F 5.1 °F 8.6 °F 73% 29.96 in 10.0 mi SW 8.1 mph - N/A   Clear
10:55 PM 15.8 °F 5.1 °F 8.6 °F 73% 29.96 in 10.0 mi SW 8.1 mph - N/A   Clear
11:15 PM 15.8 °F 6.1 °F 8.6 °F 73% 29.95 in 10.0 mi SW 6.9 mph - N/A   Clear
11:35 PM 15.8 °F 4.2 °F 8.6 °F 73% 29.94 in 10.0 mi SW 9.2 mph - N/A   Clear
11:55 PM 15.8 °F 4.2 °F 8.6 °F 73% 29.93 in 10.0 mi SW 9.2 mph - N/A   Clear